TimePST,TemperatureF,Dew PointF,Humidity,Sea Level PressureIn,VisibilityMPH,Wind Direction,Wind SpeedMPH,Gust SpeedMPH,PrecipitationIn,Events,Conditions,WindDirDegrees,DateUTC
12:53 AM,60.1,54.0,80,30.02,10.0,SSE,16.1,-,N/A,,Mostly Cloudy,150,2012-12-01 08:53:00
1:53 AM,60.8,57.2,88,30.00,10.0,SSE,18.4,-,N/A,,Mostly Cloudy,150,2012-12-01 09:53:00
2:53 AM,61.0,57.0,87,29.99,10.0,SSE,18.4,28.8,N/A,,Overcast,150,2012-12-01 10:53:00
3:31 AM,60.8,55.4,82,30.00,8.0,SSE,19.6,-,0.00,Rain,Light Rain,150,2012-12-01 11:31:00
3:53 AM,60.8,55.4,82,29.98,9.0,SSE,19.6,-,N/A,,Overcast,150,2012-12-01 11:53:00
4:18 AM,60.8,55.4,82,29.97,9.0,SE,21.9,28.8,N/A,,Overcast,140,2012-12-01 12:18:00
4:53 AM,61.0,55.0,81,29.97,10.0,SE,21.9,-,N/A,,Overcast,140,2012-12-01 12:53:00
5:53 AM,60.8,55.4,82,29.98,4.0,SE,18.4,27.6,N/A,Rain,Light Rain,140,2012-12-01 13:53:00
6:53 AM,60.8,57.2,88,29.99,7.0,SSE,18.4,-,N/A,Rain,Light Rain,150,2012-12-01 14:53:00
7:47 AM,60.8,57.2,88,29.99,2.0,SSE,24.2,-,0.01,Rain,Light Rain,150,2012-12-01 15:47:00
7:53 AM,61.0,57.9,90,30.00,5.0,SSE,24.2,32.2,0.01,Rain,Light Rain,150,2012-12-01 15:53:00
8:03 AM,60.8,57.2,88,30.01,2.0,SSE,23.0,-,0.02,Rain,Rain,150,2012-12-01 16:03:00
8:05 AM,60.8,57.2,88,30.01,1.5,SSE,24.2,-,0.02,Rain,Rain,150,2012-12-01 16:05:00
8:17 AM,60.8,59.0,94,30.01,7.0,SSE,21.9,-,0.03,Rain,Light Rain,150,2012-12-01 16:17:00
8:53 AM,62.6,59.0,88,30.03,10.0,SSE,17.3,-,N/A,,Overcast,160,2012-12-01 16:53:00
9:53 AM,63.0,61.0,93,30.05,10.0,SSE,12.7,-,0.00,,Overcast,160,2012-12-01 17:53:00
10:53 AM,64.4,62.6,94,30.05,10.0,SSE,12.7,-,N/A,,Overcast,160,2012-12-01 18:53:00
11:53 AM,64.0,62.1,93,30.03,10.0,SSW,9.2,-,0.01,,Overcast,200,2012-12-01 19:53:00
12:53 PM,64.0,57.9,80,30.02,10.0,SSW,10.4,-,N/A,,Mostly Cloudy,210,2012-12-01 20:53:00
1:53 PM,64.0,57.0,78,30.01,10.0,SSW,9.2,-,N/A,,Mostly Cloudy,200,2012-12-01 21:53:00
2:53 PM,64.0,57.0,78,30.01,10.0,SSW,10.4,-,N/A,,Mostly Cloudy,200,2012-12-01 22:53:00
3:53 PM,63.0,57.0,81,30.00,10.0,South,10.4,-,0.00,Rain,Light Rain,190,2012-12-01 23:53:00
4:53 PM,62.1,57.0,84,29.99,10.0,SSW,4.6,-,0.00,Rain,Light Rain,200,2012-12-02 00:53:00
5:53 PM,62.1,57.0,84,29.98,10.0,SE,6.9,-,0.02,Rain,Light Rain,130,2012-12-02 01:53:00
6:53 PM,62.1,57.9,86,29.96,7.0,SSE,16.1,20.7,0.06,Rain,Rain,150,2012-12-02 02:53:00
7:53 PM,61.0,57.9,90,29.93,7.0,SE,13.8,-,0.14,Rain,Rain,140,2012-12-02 03:53:00
8:43 PM,60.8,57.2,88,29.93,2.5,SSE,18.4,26.5,0.07,Rain,Light Rain,150,2012-12-02 04:43:00
8:53 PM,60.1,57.9,93,29.93,2.5,SE,18.4,25.3,0.09,Rain,Rain,140,2012-12-02 04:53:00
9:00 PM,60.8,57.2,88,29.93,2.0,SE,19.6,-,0.01,Rain,Light Rain,140,2012-12-02 05:00:00
9:31 PM,60.8,57.2,88,29.92,5.0,SE,21.9,-,0.04,Rain,Light Rain,140,2012-12-02 05:31:00
9:53 PM,60.1,59.0,96,29.91,7.0,SSE,21.9,-,0.04,Rain,Light Rain,150,2012-12-02 05:53:00
10:25 PM,60.8,57.2,88,29.92,9.0,SE,19.6,28.8,0.00,Rain,Light Rain,140,2012-12-02 06:25:00
10:53 PM,60.1,57.9,93,29.92,9.0,SSE,21.9,27.6,0.00,Rain,Light Rain,150,2012-12-02 06:53:00
11:19 PM,60.8,57.2,88,29.92,2.0,SSE,20.7,-,0.00,Rain,Light Rain,150,2012-12-02 07:19:00
11:37 PM,60.8,57.2,88,29.92,3.0,SSE,19.6,-,0.01,Rain,Light Rain,150,2012-12-02 07:37:00
11:53 PM,60.1,57.9,93,29.91,4.0,SSE,17.3,-,0.01,Rain,Light Rain,160,2012-12-02 07:53:00